Other Public Products
Issued by NWS Grand Forks, ND

Home | Current Version | Previous Version | Graphics & Text | Print | Product List | Glossary On
Versions: 1 2 3 4 5 6 7 8 9 10 11 12 13 14 15 16 17 18 19 20 21 22 23 24 25 26 27 28 29 30 31 32 33 34 35 36 37 38 39 40 41 42 43 44 45 46 47 48 49 50
000
FPUS83 KFGF 261031
OPUFGF
PRAIRIE TO PINES WEATHER ROUNDUP
NATIONAL WEATHER SERVICE EASTERN NORTH DAKOTA/GRAND FORKS ND
400 AM CST WED NOV 26 2014

 **SATELLITE DATA USED TO AUGMENT SKY COVER AT AUTOMATED STATIONS**
 *****  WEATHER ACROSS EASTERN NORTH DAKOTA  *****

CITY           SKY/WX    TMP DP  RH WIND       PRES   REMARKS
GRAND FORKS    PTCLDY     2  -4  76 N15G26    30.28R WCI -17
GRAND FORKS AF PTCLDY     1  -4  80 N20       30.28R WCI -20
GRAND CITY NWS   N/A      0 N/A N/A N15         N/A  WCI -20
BUXTON           N/A      5   2  88 NW13        N/A  WCI -11
DEVILS LAKE    CLOUDY     1  -9  60 N14       30.25R WCI -17
FARGO          LGT SNOW  11   6  81 N21       30.20R WCI  -8
WAHPETON ARPT  CLOUDY    18  12  79 N17G25    30.14R WCI   2
$$

 *****  WEATHER ACROSS CENTRAL AND WESTERN NORTH DAKOTA  *****

CITY           SKY/WX    TMP DP  RH WIND       PRES   REMARKS
JAMESTOWN      MOCLDY     5   0  79 N13       30.20R WCI -12
BISMARCK       CLOUDY    11   6  81 N8        30.28R WCI  -1
MINOT          LGT SNOW   6   1  80 NW3       30.28R
MINOT AFB      LGT SNOW   5   3  92 NW3       30.29R FOG
GARRISON         N/A      7   2  80 N5        30.25R WCI  -2
WILLISTON      LGT SNOW  16  12  84 N3        30.25R FOG
DICKINSON      CLOUDY    19  15  84 CALM      30.17S
HETTINGER      CLOUDY    21  18  88 N9        30.19R WCI  11
$$

 *****  OTHER OBSERVATIONS NORTHEAST NORTH DAKOTA  *****

CITY           SKY/WX    TMP DP  RH WIND       PRES   REMARKS
WALHALLA         N/A     -2  -8  78 N15       30.37R WCI -22
LANGDON        PTSUNNY   -2  -8  78 N10       30.26R WCI -19
CAVALIER       FAIR      -2  -8  78 N13       30.35R WCI -21
GRAFTON        PTSUNNY   -2  -8  78 N16G23    30.32R WCI -23
CANDO          CLOUDY     0  -4  85 N13       30.30R WCI -18
FORT TOTTEN      N/A      3  -2  79 N7        29.95S WCI  -9
ROLLA          CLOUDY     0  -4  85 N8        30.27R WCI -15
RUGBY          FLURRIES   1  -2  85 NE8       30.28R WCI -12
 ***** THE ABOVE OBSERVATIONS ARE NON NWS ARE NOT QUALITY
        CONTROLLED AND MAY MIS-REPORT RAIN FOR SNOW...
$$

 *****  OTHER OBSERVATIONS SOUTHEAST NORTH DAKOTA *****

CITY           SKY/WX    TMP DP  RH WIND       PRES   REMARKS
COOPERSTOWN    NOT AVBL
VALLEY CITY    CLOUDY     7   1  78 N18       30.20R WCI -12
OAKES            N/A     10   7  85 N20G29    30.17R WCI  -8
GWINNER        CLOUDY    14  10  85 N21       30.17R WCI  -4
SHEYENNE NWR     N/A     12   8  82 N12       29.95  WCI  -2
BUFFALO        NOT AVBL
WYNDMERE         N/A     12  10  92 VRB15       N/A  WCI  -4
 ***** THE ABOVE OBSERVATIONS ARE NON NWS ARE NOT QUALITY
       CONTROLLED AND MAY MIS-REPORT RAIN FOR SNOW...
$$

  *****  WEATHER ACROSS NORTHERN MINNESOTA  *****

CITY           SKY/WX    TMP DP  RH WIND       PRES   REMARKS
FLAG ISLAND    CLEAR      0  -6  78 N8        30.23R WCI -15
WARROAD        CLEAR      1  -2  85 NW7       30.23R WCI -11
ROSEAU         CLEAR      0  -6  78 N8        30.25R WCI -15
HALLOCK        MOCLDY    -4  -9  77 N15       30.31R WCI -25
THF RVR FALLS  PTCLDY     7   1  78 N14       30.22R WCI -10
HALSTAD          N/A      7   3  83 N23         N/A  WCI -14
FOSSTON        FLURRIES  10   7  85 N13       30.17R WCI  -5
BAUDETTE       PTCLDY     6   2  83 N10       30.18R WCI  -9
WASKISH        FLURRIES  10   9  92 CALM      30.16R
CROOKSTON      PTCLDY     3   0  85 N16G23    30.26R WCI -16
$$
  *****  WEATHER ACROSS CENTRAL AND WEST MINNESOTA  *****

CITY           SKY/WX    TMP DP  RH WIND       PRES   REMARKS
BEMIDJI        LGT SNOW  14  10  85 N7        30.12R WCI   4
PARK RAPIDS    LGT SNOW  17  13  84 N6        30.08R FOG     WCI   9
WADENA         LGT SNOW  18  12  79 N7        30.08R WCI   8
DETROIT LAKES  LGT SNOW  19  18  93 N9        30.12R WCI   9
MOORHEAD       MIX PCPN  12  10  92 N24       30.19R WCI  -8
FERGUS FALLS   CLOUDY    19  14  79 NE8       30.13R WCI   9
ELBOW LAKE     LGT SNOW  19  16  87 N10       30.08R WCI   8
MORRIS MN      LGT SNOW  21  18  86 N13       30.05R WCI   9
STAPLES        LGT SNOW  18  12  79 N5          N/A  WCI  11
WHEATON        LGT SNOW  19  16  86 N14G22    30.12R WCI   6
$$
  *****  WEATHER ELSEWHERE ACROSS MINNESOTA  *****

CITY           SKY/WX    TMP DP  RH WIND       PRES   REMARKS
DULUTH         CLOUDY    20  10  65 CALM      30.05S
INTRNTL FALLS  LGT SNOW  13   8  81 N8        30.13S WCI   2
ELY            CLOUDY    10   9  92 CALM      30.08R
CLOQUET        CLOUDY    19  14  79 CALM      30.06S
BRAINERD       LGT SNOW  18  14  84 N7        30.09R FOG     WCI   9
HIBBING        LGT SNOW  19  12  74 N9        30.08S WCI   8
ALEXANDRIA     LGT SNOW  19  15  84 N13       30.06R FOG     WCI   6
SAINT CLOUD    CLOUDY    24  16  71 NE6       30.04R WCI  17
MINNEAPOLIS    CLOUDY    24  15  68 E8        30.04R WCI  15
$$

  *****  WEATHER ACROSS SOUTH DAKOTA  *****

CITY           SKY/WX    TMP DP  RH WIND       PRES   REMARKS
SIOUX FALLS    LGT SNOW  30  28  92 N7        29.88R FOG     WCI  23
BROOKINGS      NOT AVBL
WATERTOWN      LGT SNOW  20  16  84 NE23G31   30.00R FOG     WCI   3
HURON          LGT SNOW  24  20  84 N23G32    30.04R FOG     WCI   9
SISSETON         N/A     19  17  92 N22       30.10R WCI   2
ABERDEEN       MOCLDY    14   9  80 N22G32    30.15R WCI  -4
MITCHELL       CLOUDY    34  32  92 N20       29.93R WCI  23
PIERRE         CLOUDY    21  16  81 N20G31    30.14R WCI   6
MOBRIDGE       CLOUDY    16  11  80 N21G26    30.18R WCI  -1
RAPID CITY     CLOUDY    25  20  81 N20       30.16R WCI  11
$$

  *****  SOME WEATHER IN NEARBY STATES *****

CITY           SKY/WX    TMP DP  RH WIND       PRES   REMARKS
GLASGOW MT     CLOUDY    21  16  81 S3        30.22R
GREAT FALLS MT LGT SNOW  28  28 100 CALM      30.13R FOG
CHEYENNE WY    LGT SNOW  23  17  78 N15G22    30.12R WCI  10
SCOTTSBLUFF NE CLOUDY    31  25  78 NW12      30.15R WCI  22
OMAHA NE       CLOUDY    39  35  86 NW9       29.85S
DES MOINES IA  LGT SNOW  31  27  85 SE9       29.90F FOG     WCI  23
DAVENPORT IA   MOCLDY    17  14  88 E8        30.08F WCI   7
CHICAGO IL     CLEAR     19  15  84 E8        30.14F WCI   9
EAU CLAIRE WI  MOCLDY    20  13  74 E6        30.07F WCI  12
LA CROSSE WI   PTCLDY    19  14  81 E3        30.08F
$$

  *****  SOME NATIONAL WEATHER *****

CITY           SKY/WX    TMP DP  RH WIND       PRES   REMARKS
LA GUARDIA NY  CLOUDY    49  29  46 N10       30.11F
RALEIGH NC     RAIN      49  46  90 N10G20    29.90F VSB 1
ATLANTA GA     CLOUDY    47  32  56 NW10G22   29.99R
NEW ORLEANS LA CLEAR     38  32  79 CALM      30.21S
OKLAHOMA CITY  PTCLDY    37  27  67 SW7       29.96S
ALBUQUERQUE NM PTCLDY    37   7  28 W3        30.33R
SALT LAKE CITY PTCLDY    40  28  62 SE5       30.34R
LOS ANGELES CA CLEAR     57  32  38 E3        30.24F
BOISE ID       MOCLDY    47  38  71 N3        30.29S
SEATTLE WA     MOCLDY    56  53  90 S16G23    30.18F
$$

*** WEATHER ACROSS MANITOBA...SASKATCHEWAN AND ONTARIO ***
                ***ONTARIO***

CITY           SKY/WX    TMP DP  RH WIND       PRES   REMARKS
GERALDTON      FLURRIES   1  -2  85 N2        30.14S
THUNDER BAY    CLOUDY    14  12  92 CALM      30.16R
SIOUX LOOKOUT  CRYSTALS  -6  -9  84 N5        30.18R WCI -17
TORONTO        CLOUDY    34  27  75 SE3       30.19F
BIG TROUT LK   CLEAR    -22 -27  76 W8        30.20R WCI -41
PICKLE LAKE    NOT AVBL
DRYDEN         CLEAR     -2  -4  92 N6        30.17R WCI -14
KENORA         FLURRIES  -6  -9  84 N6        30.20R WCI -18
$$
                *** MANITOBA***

CITY           SKY/WX    TMP DP  RH WIND       PRES   REMARKS
BRANDON        CLOUDY    -2  -9  71 NE3       30.34R
DAUPHIN        CLEAR    -18 -24  76 W6        30.40R WCI -33
ISLAND LAKE    CLEAR    -20 -26  76 W12       30.28S WCI -42
PILOT MOUND      N/A     -4  -8  84 N12         N/A  WCI -22
THE PAS        CLEAR    -18 -24  76 W3        30.40S
THOMPSON       NOT AVBL
WINNIPEG       CLEAR    -17 -24  70 NW8       30.38R WCI -34
LYNN LAKE      CLEAR    -22 -27  76 NW7       30.30S WCI -39
CHURCHILL      CRYSTALS  -9 -15  77 NW16G23   30.18R BLWGSNOWWCI -32
GILLAM         CLEAR    -22 -27  76 W8        30.24  WCI -41
$$
                ***SASKATCHEWAN***

CITY           SKY/WX    TMP DP  RH WIND       PRES   REMARKS
ESTEVAN        FLURRIES   5   1  85 N8        30.26  WCI  -8
KINDERSLEY     CLOUDY    10   7  85 SE5       30.24S WCI   2
LLOYDMINSTER   FLURRIES   1  -2  85 E6        30.27S WCI -10
PRINCE ALBERT  CRYSTALS -24 -29  76 CALM      30.40R
REGINA         PTCLDY    -6  -9  84 N2        30.31R


USA.gov is the U.S. government's official web portal to all federal, state and local government web resources and services.